User: anonymous   Login
Location: Unspecified
(0.0000°N, 0.0000°E)
Time: 07:45:56
(UTC+00:00)
Language:

ONEWEB-0297 - Orbit

View from above orbital plane
View from above orbital plane
View from above satellite
View from above satellite

Ground track
Ground track

The orbit is defined by the following mean orbital elements,

1 49086U          26145.31702341 +.00000000 +00000-0 -38652-3 0 00007
2 49086  87.8948 355.2276 0001855  89.3015 270.8327 13.12443319    08
Epoch (UTC): 25 May 2026 07:36:30
Eccentricity: 0.0001855
inclination: 87.8948°
perigee height: 1212 km
apogee height: 1215 km
right ascension of ascending node: 355.2276°
argument of perigee: 89.3015°
revolutions per day: 13.12443319
mean anomaly at epoch: 270.8327°

The dashed part of the orbit path shows where the satellite is in the earth's shadow,  

DLR